Lytton, British Columbia

5:43 AM PDT on March 24, 2017 (GMT -0700)
Lytton

Weather History for CWLY - October, 2011

Change the Weather History Date:

Sunday, October 9, 2011

  Actual Average Record
Temperature  
Mean Temperature 58 °F -  
Max Temperature 65 °F 51 °F 74 °F (2012)
Min Temperature 50 °F 37 °F 33 °F (2006)
Degree Days  
Heating Degree Days 8    
Growing Degree Days 8 (Base 50)    
Moisture  
Dew Point 46 °F    
Average Humidity 69    
Maximum Humidity 82    
Minimum Humidity 37    
Precipitation  
Precipitation 0.00 in 0.06 in - ()
Sea Level Pressure  
Sea Level Pressure 29.91 in    
Wind  
Wind Speed 19 mph ()    
Max Wind Speed 30 mph    
Max Gust Speed 41 mph    
Visibility 9.0 miles    
Events      
Averages and records for this station are not official NWS values.
T = Trace of Precipitation, MM = Missing Value Source: Averaged Metar Reports

Daily Weather History Graph

Daily Weather History Graph

Search for Another Location

Airport or City:

Trip Planner

Search our weather history database for the weather conditions in past years. The results will help you decide how hot, cold, wet, or windy it might be!

Date:

Astronomy

Oct. 09, 2011 Rise Set
Actual Time 7:18 AM PDT 6:27 PM PDT
Civil Twilight 6:46 AM PDT 7:00 PM PDT
Nautical Twilight 6:08 AM PDT 7:37 PM PDT
Astronomical Twilight 5:30 AM PDT 8:15 PM PDT
Moon 5:12 PM PDT (10/9) 4:59 AM PDT (10/9)
Length of Visible Light 12h 13m
Length of Day
11h 08m
Waxing Gibbous, 95% of the Moon is Illuminated
Oct 9
Waxing Gibbous
Oct 11
Full
Oct 19
Last Quarter
Oct 26
New
Nov 2
First Quarter

Hourly Weather History & Observations

Time (PDT) Temp. Dew Point Humidity Pressure Visibility Wind Dir Wind Speed Gust Speed Precip Events Conditions
12:00 AM 55.4 °F 48.2 °F 77% 29.91 in 9.0 mi SW 20.7 mph 33.4 mph N/A   Partly Cloudy
12:32 AM 55.4 °F 48.2 °F 77% 29.89 in 9.0 mi SW 25.3 mph 40.3 mph N/A   Clear
12:46 AM 53.6 °F 48.2 °F 82% 29.89 in 9.0 mi SSW 24.2 mph 40.3 mph N/A   Clear
12:51 AM 53.6 °F 48.2 °F 82% 29.89 in 9.0 mi SSW 20.7 mph 39.1 mph N/A   Clear
12:53 AM 53.6 °F 48.2 °F 82% 29.89 in 9.0 mi SSW 25.3 mph 39.1 mph N/A   Clear
1:00 AM 53.6 °F 48.2 °F 82% 29.89 in 9.0 mi SSW 28.8 mph 38.0 mph N/A   Clear
1:15 AM 55.4 °F 48.2 °F 77% 29.89 in 9.0 mi SW 28.8 mph 36.8 mph N/A   Clear
2:00 AM 55 °F 48 °F 70% 29.91 in 9 mi SSW 24.2 mph - -  
2:00 AM 55.4 °F 48.2 °F 77% 29.91 in 9.0 mi SSW 28.8 mph 38.0 mph N/A   Clear
2:18 AM 55.4 °F 48.2 °F 77% 29.91 in 9.0 mi SSW 29.9 mph 36.8 mph N/A   Clear
2:31 AM 55.4 °F 48.2 °F 77% 29.91 in 9.0 mi SSW 19.6 mph 41.4 mph N/A   Clear
3:00 AM 55.4 °F 48.2 °F 77% 29.93 in 9.0 mi South 19.6 mph 33.4 mph N/A   Clear
3:23 AM 55.4 °F 48.2 °F 77% 29.92 in 9.0 mi South 19.6 mph 29.9 mph N/A   Clear
3:27 AM 55.4 °F 48.2 °F 77% 29.92 in 9.0 mi SSW 21.9 mph 32.2 mph N/A   Clear
3:44 AM 53.6 °F 48.2 °F 82% 29.92 in 9.0 mi SSW 20.7 mph 32.2 mph N/A   Partly Cloudy
4:59 AM 55.4 °F 48.2 °F 77% 29.94 in 9.0 mi SSW 18.4 mph 34.5 mph N/A   Partly Cloudy
5:00 AM 54 °F 47 °F 72% 29.95 in 9 mi SSW 18.4 mph - -  
5:00 AM 55.4 °F 48.2 °F 77% 29.95 in 9.0 mi SSW 16.1 mph 34.5 mph N/A   Partly Cloudy
6:00 AM 55.4 °F 46.4 °F 72% 29.97 in 9.0 mi South 21.9 mph - N/A   Clear
8:00 AM 53.6 °F 46.4 °F 77% 30.01 in 9.0 mi South 15.0 mph 21.9 mph N/A   Clear
10:00 AM 55.4 °F 48.2 °F 77% 30.01 in 9.0 mi SSE 5.8 mph - N/A   Clear
11:00 AM 56 °F 47 °F 65% 29.98 in 9 mi SSW 16.1 mph - -  
11:00 AM 55.4 °F 48.2 °F 77% 29.98 in 9.0 mi South 16.1 mph 23.0 mph N/A   Partly Cloudy
1:00 PM 59.0 °F 46.4 °F 63% 29.94 in 9.0 mi SSW 17.3 mph 25.3 mph N/A   Clear
2:00 PM 62 °F 45 °F 43% 29.91 in 9 mi SSW 12.7 mph - -  
2:00 PM 62.6 °F 44.6 °F 52% 29.91 in 9.0 mi SSW 11.5 mph 21.9 mph N/A   Clear
3:00 PM 66.2 °F 39.2 °F 37% 29.88 in 9.0 mi South 16.1 mph 28.8 mph N/A   Clear
4:00 PM 60.8 °F 42.8 °F 52% 29.87 in 9.0 mi SW 15.0 mph 21.9 mph N/A   Clear
5:00 PM 60 °F 43 °F 42% 29.86 in 9 mi SSW 13.8 mph - -  
5:00 PM 60.8 °F 42.8 °F 52% 29.86 in 9.0 mi SSW 17.3 mph 23.0 mph N/A   Clear
7:00 PM 57.2 °F 42.8 °F 59% 29.84 in 9.0 mi SSW 16.1 mph 27.6 mph N/A   Clear
8:00 PM 55 °F 44 °F 56% 29.85 in 9 mi South 16.1 mph - -  
8:00 PM 55.4 °F 44.6 °F 67% 29.85 in 9.0 mi South 12.7 mph 25.3 mph N/A   Clear
9:00 PM 53.6 °F 42.8 °F 67% 29.84 in 9.0 mi South 19.6 mph 28.8 mph N/A   Clear
10:00 PM 53.6 °F 41.0 °F 62% 29.83 in 9.0 mi South 18.4 mph 27.6 mph N/A   Clear
11:00 PM 51 °F 43 °F 65% 29.82 in 9 mi South 15.0 mph - -